ASTRA 2G

Last updated on Thu Nov 21 2024 00:02:42 GMT+0000 (Coordinated Universal Time)

1 40364U 14089A 24325.30088230 .00000151 00000+0 00000+0 0 9994 2 40364 0.0487 10.4842 0000594 24.0442 161.8236 1.00272326 36213
UTC large
Height (km)
Speed (km/s)
/
Latitude / Longitude
Inclination (degrees)
Orbital Period (minutes)
Azimuth
Elevation
Range (km)
Doppler Factor

Next 0 passes for location: London (51.5072 / 0.1276)

Sorry there are no passes over London.